Theta_e
313 313 313 313 313 313 314 314 314 314 314 315 316 317 319 319 318 312 305 311 312 321 321 309 308 311 311 305 308 312 298 295 296 299 301 311 306 306 308 309 311 315 319 324 328
312 312 312 312 312 312 312 312 312 312 313 314 315 317 319 317 311 306 315 318 320 321 308 304 303 307 304 301 307 304 297 297 303 304 304 308 306 306 305 306 309 320 325 329 328
310 310 310 310 311 311 312 312 312 312 312 313 314 316 318 316 305 304 316 317 319 318 310 307 306 306 302 303 301 300 300 303 305 308 310 309 306 307 304 300 308 316 322 324 324
310 310 311 311 311 312 312 312 312 312 312 313 314 315 317 309 291 306 314 314 318 316 309 307 305 302 299 297 304 298 303 305 304 308 309 308 308 303 304 304 310 323 324 324 324
311 311 311 311 311 312 312 312 312 313 313 313 314 316 309 297 299 309 316 312 313 313 307 304 302 301 298 299 301 300 303 307 306 302 307 308 307 304 303 308 311 325 323 321 324
311 311 311 311 311 311 312 312 312 313 313 314 315 315 306 295 308 312 311 310 309 309 307 305 302 304 299 299 298 301 304 306 307 303 304 306 306 305 305 312 319 322 320 321 322
311 311 310 310 311 311 311 312 312 313 314 315 316 312 303 300 309 311 312 309 311 309 305 307 306 303 303 299 303 303 300 302 304 302 302 306 301 302 307 310 315 317 319 321 321
310 310 310 310 311 311 311 312 313 314 314 315 315 311 297 311 311 310 311 308 311 311 309 309 309 305 303 304 302 298 299 294 301 303 303 302 294 304 306 308 308 312 315 319 322
310 310 310 310 310 311 311 312 314 315 314 314 308 303 297 312 304 309 309 304 308 311 311 312 308 302 301 296 293 296 289 293 297 302 301 300 294 302 306 307 307 309 312 316 320
310 310 310 310 310 311 312 314 314 310 309 310 309 297 301 297 303 308 308 306 305 306 304 303 299 293 295 292 285 285 288 292 293 298 300 296 295 298 302 305 305 306 312 314 315
309 309 309 310 309 310 307 299 294 294 297 294 295 296 299 304 309 303 305 305 306 303 294 298 290 286 292 293 293 291 291 291 295 297 297 296 295 296 298 299 300 305 310 313 314
309 309 310 310 309 309 303 295 296 299 290 298 300 300 302 305 298 302 308 300 296 291 297 293 288 293 295 296 293 291 289 288 293 296 296 294 294 296 296 296 299 304 309 312 314
309 309 310 309 308 303 297 298 304 304 290 295 300 299 299 303 297 297 302 299 293 289 289 288 292 295 293 292 291 291 288 288 289 293 293 291 290 294 297 298 299 301 302 303 310
308 309 309 308 300 297 295 301 303 305 282 287 293 297 300 301 295 303 304 299 294 289 290 288 295 293 291 290 292 288 293 292 290 288 282 290 283 288 291 294 293 292 293 294 295
308 309 308 307 297 295 299 302 302 299 268 288 292 302 301 295 296 296 305 299 292 291 289 285 290 290 288 289 293 289 294 292 291 288 285 285 282 287 289 287 289 292 293 294 295
307 308 307 302 299 300 302 301 297 277 267 284 292 290 290 293 295 297 297 300 298 292 289 288 293 292 290 293 293 295 292 291 290 288 281 285 283 284 287 287 288 290 291 294 295
307 306 303 303 295 302 300 294 276 270 283 279 282 288 288 287 291 293 291 291 289 283 281 287 287 291 293 288 292 291 288 278 276 277 279 286 284 285 289 289 290 290 291 293 296
307 306 304 302 302 300 296 280 267 271 275 287 287 289 284 287 287 290 290 287 292 290 286 280 276 287 292 289 287 288 287 278 272 275 278 283 282 285 290 292 292 293 294 294 296
305 299 298 300 302 298 288 269 271 274 285 284 286 280 276 288 287 286 287 285 290 291 284 284 282 289 291 292 290 286 283 289 281 277 276 280 284 288 290 290 291 292 293 293 295
298 295 296 301 300 294 281 277 274 286 287 285 279 282 275 278 283 283 285 288 288 291 292 288 282 288 290 291 291 288 291 281 279 269 272 278 280 280 285 287 289 290 291 293 295
296 288 296 301 298 286 275 275 280 287 288 283 278 280 282 281 281 282 283 288 289 289 292 289 287 285 288 285 283 286 283 286 284 280 277 275 276 286 288 289 289 290 292 293 294
292 280 296 299 281 282 276 275 284 284 287 286 285 283 281 283 282 280 283 286 292 291 287 289 286 282 282 288 290 288 285 285 278 278 280 280 279 290 289 290 291 291 293 293 294
286 285 298 296 275 279 279 276 282 283 284 284 283 286 286 283 279 284 287 290 290 290 286 290 282 277 275 283 288 285 287 288 286 283 279 276 278 290 290 290 291 291 291 292 292
286 281 286 288 284 279 274 273 275 284 283 285 285 287 284 281 284 282 283 287 289 290 293 292 283 280 272 278 285 281 284 286 284 275 279 280 281 286 289 289 289 289 290 292 293
286 281 284 279 281 279 280 279 277 275 280 283 282 283 283 277 280 281 283 285 287 291 289 288 274 279 282 282 283 282 283 283 282 283 277 281 281 287 289 288 288 288 290 291 292
284 282 284 284 283 281 282 277 278 280 279 276 277 282 283 279 280 279 282 282 281 286 284 286 271 277 272 280 280 278 281 281 282 284 284 284 283 289 289 287 285 288 290 290 291
292 291 287 285 282 279 278 279 280 282 283 283 282 282 281 283 286 287 287 286 284 282 282 280 272 266 265 276 272 267 275 280 281 282 283 279 283 286 285 286 286 287 289 289 290
Wind_Speed
10 11 12 13 13 14 15 15 16 17 17 17 18 18 19 18 14 10 7 7 3 9 6 6 5 10 11 6 5 2 4 11 8 8 5 4 5 2 1 8 5 4 5 7 14
11 11 12 13 14 15 15 15 16 17 18 18 18 19 18 17 6 7 10 5 5 7 4 4 4 8 7 6 5 7 8 9 5 8 1 9 6 9 5 7 5 8 8 13 8
12 12 13 13 15 15 16 16 16 17 18 17 18 18 18 15 4 2 7 5 5 3 0 3 4 4 3 5 7 6 13 10 1 2 6 10 3 6 10 2 9 13 16 8 6
11 12 13 14 14 16 17 18 18 18 18 18 17 17 18 5 4 1 2 2 4 3 2 1 2 5 3 12 7 4 7 5 4 6 5 2 2 4 6 6 12 21 20 13 11
11 12 14 15 16 17 18 19 18 18 18 17 16 13 6 5 4 5 5 3 2 2 8 6 6 5 6 10 6 4 4 7 1 9 8 7 3 5 7 1 13 18 18 17 14
11 12 13 15 16 18 20 20 20 19 18 16 11 7 2 4 3 10 10 7 2 3 6 5 5 4 3 7 12 5 3 5 2 9 8 4 2 4 3 7 17 19 15 15 16
11 12 14 16 17 18 20 21 21 19 16 11 7 1 4 6 6 8 9 6 4 4 4 3 4 4 7 5 6 4 5 2 4 1 7 2 5 5 4 7 14 13 13 13 12
10 12 13 15 17 19 20 21 20 18 11 7 2 1 4 4 6 8 10 7 5 4 4 2 4 1 3 3 6 2 6 5 7 9 6 6 5 9 4 10 10 10 11 13 14
9 11 13 15 18 20 22 21 20 13 8 7 3 1 3 5 6 6 5 7 5 1 4 4 1 2 5 5 4 4 2 5 10 5 8 1 5 6 6 9 9 9 9 11 12
9 11 14 16 18 20 22 22 8 6 5 3 2 3 1 7 6 5 4 9 2 9 2 1 4 2 4 4 4 4 3 4 6 3 1 11 6 6 3 5 7 7 9 9 11
8 11 12 15 17 20 15 5 7 6 7 2 4 3 5 7 2 4 6 7 3 2 4 4 5 5 11 11 12 8 8 4 3 6 5 7 7 6 5 0 3 1 7 9 10
8 11 13 15 16 16 6 6 2 1 5 6 4 2 4 4 4 8 8 5 6 4 4 2 8 4 9 12 13 16 13 7 7 4 5 1 9 4 3 4 4 4 4 6 7
8 10 11 13 15 4 6 4 3 2 1 4 2 1 5 3 4 6 5 6 5 1 5 5 3 3 6 9 11 14 8 3 1 4 2 3 2 6 3 3 2 6 5 7 2
7 8 9 15 2 3 3 6 5 1 3 6 2 2 4 1 4 4 2 1 6 3 4 1 5 3 4 4 7 9 3 4 6 5 2 2 0 6 7 6 10 9 9 8 10
6 6 6 6 2 3 3 5 6 1 4 4 3 3 5 2 3 4 2 4 6 7 3 1 7 4 2 1 5 6 5 5 5 3 1 5 7 7 6 7 7 7 8 8 6
4 3 5 2 1 1 4 5 3 7 4 2 3 5 2 5 2 3 3 1 3 5 2 0 1 4 3 5 3 9 4 5 4 3 3 8 3 2 3 0 2 4 7 7 8
3 1 1 0 2 4 3 3 6 5 3 6 2 1 3 4 4 6 3 4 4 4 3 1 2 2 4 4 2 2 2 3 4 3 2 5 3 1 4 6 4 5 6 5 5
2 1 1 2 2 3 3 6 5 3 4 2 2 4 2 1 3 5 3 4 6 4 3 2 5 3 1 0 4 4 3 4 4 3 3 4 5 4 2 4 4 4 4 5 4
3 1 1 2 1 2 5 4 8 6 2 1 4 4 5 0 2 5 5 5 5 9 4 4 2 1 3 2 2 4 1 2 6 2 3 2 6 7 3 5 6 8 6 5 4
1 1 2 1 2 3 5 4 3 1 1 2 3 1 2 3 2 5 3 4 5 4 6 5 1 2 2 3 3 1 5 4 3 3 0 2 3 5 1 5 4 7 7 7 5
2 1 2 1 2 4 4 5 3 2 1 1 2 1 3 2 2 2 1 2 1 5 4 5 4 2 2 3 1 3 2 4 4 3 3 3 1 4 5 4 6 5 4 4 4
2 1 2 1 4 1 3 5 3 4 1 1 1 1 0 3 2 2 3 2 5 1 2 2 4 2 1 2 2 1 1 2 4 2 0 2 2 5 5 5 6 6 7 5 4
4 2 1 2 4 3 1 1 1 4 4 3 3 3 1 1 3 0 5 1 3 2 3 3 0 1 7 6 5 4 4 3 5 3 3 5 4 4 4 7 6 7 7 7 5
4 3 2 2 2 6 5 3 1 1 1 0 1 2 1 1 0 2 2 2 1 2 1 4 2 2 5 2 2 1 2 3 4 3 1 3 3 1 7 8 6 5 4 6 8
3 4 3 4 4 3 5 6 5 3 1 2 2 3 4 3 2 2 2 2 1 1 1 2 4 2 4 6 3 1 1 1 3 4 4 4 1 6 7 7 5 4 7 8 8
6 4 1 3 5 6 5 6 8 4 7 4 3 7 4 5 4 2 2 4 2 3 2 3 0 3 4 6 7 4 6 4 3 3 4 5 7 7 7 5 5 5 7 7 7
2 1 3 6 4 4 5 6 8 8 3 4 6 3 5 3 4 4 5 3 2 2 3 3 4 4 4 5 5 7 5 5 4 4 4 5 6 3 4 4 2 5 5 5 6
Wind_Direction
359 360 355 355 354 350 347 344 341 337 336 336 334 331 331 325 312 292 261 248 322 345 352 327 346 359 326 226 218 281 189 218 219 232 249 268 170 46 297 112 56 64 121 162 144
355 355 353 350 346 342 340 337 336 333 332 333 332 330 331 329 301 299 264 309 346 351 38 12 358 27 324 254 214 199 198 212 197 242 240 243 187 159 121 122 53 78 57 125 114
352 351 350 348 340 337 334 333 335 331 329 328 328 329 329 322 275 49 7 6 342 308 58 150 90 76 254 290 221 206 220 219 180 288 273 212 211 183 130 189 177 158 145 157 136
346 345 345 341 338 333 332 330 330 327 324 324 324 329 325 297 335 241 350 34 338 313 234 200 137 137 191 262 191 190 222 179 56 332 319 299 195 199 152 206 173 157 151 156 169
335 337 338 336 334 331 328 326 324 322 321 320 320 329 357 360 276 342 339 330 302 290 238 228 222 152 243 295 291 196 215 192 174 10 298 318 151 213 185 145 147 134 144 156 175
332 334 336 333 331 329 326 324 320 318 319 317 316 332 266 282 307 337 326 304 226 12 300 177 210 156 331 265 308 315 197 224 227 338 281 329 302 210 167 104 128 138 152 159 174
327 332 333 333 331 327 324 320 316 317 316 316 312 295 262 268 323 300 301 268 161 157 244 236 178 166 153 280 294 356 127 86 224 193 299 130 282 200 128 133 145 144 154 159 177
323 329 330 331 328 325 321 315 314 312 302 310 355 286 258 276 297 320 337 323 111 87 259 167 215 190 243 216 325 15 158 169 183 47 294 94 269 260 239 153 156 156 160 164 178
319 323 327 331 328 324 319 312 306 298 283 277 331 230 313 312 329 311 291 298 263 129 240 229 100 157 225 95 93 344 195 191 147 156 340 218 257 313 193 161 166 166 166 167 169
315 324 330 334 331 327 322 314 285 327 325 233 237 312 347 326 308 302 268 274 247 295 312 30 1 28 96 101 134 99 46 92 92 152 237 295 269 325 17 152 176 200 164 166 167
314 322 332 337 335 331 333 11 14 4 29 322 270 250 289 294 277 299 318 302 230 198 10 18 28 71 104 113 105 93 89 63 114 105 209 279 286 266 290 334 129 162 176 169 174
318 323 331 334 333 333 347 67 94 271 326 291 288 252 250 275 316 333 12 346 316 302 115 23 50 357 53 101 86 88 74 22 336 14 201 244 287 286 199 251 203 150 142 170 144
315 320 329 329 326 6 80 43 178 199 280 299 202 8 288 326 336 311 27 318 256 326 72 53 118 111 93 98 86 70 65 37 189 230 264 129 278 285 255 228 239 97 84 40 34
315 318 329 328 12 325 56 333 328 318 60 327 2 335 312 213 353 281 328 346 331 62 58 61 159 149 98 85 124 69 306 346 19 65 194 131 341 10 341 45 31 16 52 40 25
306 320 331 9 252 59 318 328 314 356 48 307 351 273 273 22 233 323 307 0 327 315 67 290 174 172 8 39 274 129 237 30 21 78 339 26 95 330 342 34 27 24 31 35 37
294 317 337 70 40 53 333 325 54 43 265 336 21 337 26 343 22 287 327 163 250 315 50 53 224 154 192 155 292 158 167 97 43 70 81 313 45 307 291 102 68 27 28 15 5
288 135 342 253 182 333 341 69 33 120 316 307 314 296 306 0 15 1 27 23 34 1 349 21 16 12 84 85 327 297 122 55 31 46 154 201 74 296 17 26 29 9 13 6 22
247 170 303 111 349 18 66 49 94 240 230 252 230 301 60 354 12 352 331 42 33 346 303 125 343 352 288 150 195 212 165 136 142 159 183 167 169 89 82 44 67 75 56 61 64
141 274 252 213 25 68 83 66 198 204 247 39 314 72 325 307 101 74 44 6 27 3 350 358 52 352 33 331 100 220 120 153 109 28 76 223 111 66 58 72 28 32 43 46 52
173 209 229 205 65 84 81 218 180 328 279 0 150 178 164 287 102 87 32 322 334 21 357 326 234 359 292 333 337 156 166 75 4 95 80 304 60 125 179 72 50 44 33 10 9
93 73 269 9 81 55 161 201 196 241 55 138 156 352 54 48 95 70 126 230 14 334 336 333 342 337 68 15 281 31 0 58 104 98 135 127 293 190 150 115 71 53 54 32 5
116 138 255 75 68 327 155 173 273 153 113 284 170 107 273 17 85 127 118 93 160 146 76 18 340 341 333 279 317 277 69 149 120 220 90 101 197 196 147 87 55 26 11 9 5
142 205 317 107 153 178 20 341 250 166 180 177 201 236 136 70 88 40 133 150 36 225 131 129 98 334 343 350 356 16 29 96 97 64 198 135 238 170 71 26 23 28 6 353 3
108 151 328 30 332 134 149 208 150 257 69 23 174 145 165 168 113 156 120 111 80 72 134 121 54 130 178 242 233 183 59 6 96 103 208 224 300 292 334 346 357 347 16 11 8
117 227 180 180 227 168 145 149 139 183 5 349 245 228 173 136 132 154 120 112 71 144 308 89 120 40 345 344 327 282 226 167 196 205 139 213 239 298 312 302 306 10 20 20 16
141 156 236 182 146 130 168 207 166 161 142 245 171 206 211 140 161 135 126 41 85 332 89 36 82 64 348 357 359 308 280 267 233 214 222 237 283 240 268 302 11 28 22 26 18
182 175 123 168 146 115 206 183 188 144 221 192 181 113 177 147 111 123 95 112 72 87 42 73 111 65 282 342 4 340 246 215 218 202 182 216 223 292 309 337 330 7 67 42 357